TimeMDT,TemperatureF,Dew PointF,Humidity,Sea Level PressureIn,VisibilityMPH,Wind Direction,Wind SpeedMPH,Gust SpeedMPH,PrecipitationIn,Events,Conditions,WindDirDegrees,DateUTC
12:15 AM,26.6,24.8,93,30.11,2.0,NNE,5.8,-,N/A,,Overcast,30,2012-04-07 06:15:00
1:15 AM,26.6,24.8,93,30.14,2.5,Calm,Calm,-,N/A,,Overcast,0,2012-04-07 07:15:00
1:35 AM,26.6,24.8,93,30.14,9.0,ESE,5.8,-,N/A,,Overcast,120,2012-04-07 07:35:00
1:55 AM,26.6,26.6,100,30.14,10.0,SE,3.5,-,N/A,,Scattered Clouds,140,2012-04-07 07:55:00
2:15 AM,26.6,24.8,93,30.15,10.0,Calm,Calm,-,N/A,,Partly Cloudy,0,2012-04-07 08:15:00
2:35 AM,24.8,24.8,100,30.15,10.0,Calm,Calm,-,N/A,,Scattered Clouds,0,2012-04-07 08:35:00
2:55 AM,24.8,24.8,100,30.15,10.0,SE,3.5,-,N/A,,Partly Cloudy,140,2012-04-07 08:55:00
3:15 AM,24.8,23.0,93,30.16,10.0,South,3.5,-,N/A,,Partly Cloudy,190,2012-04-07 09:15:00
3:35 AM,24.8,23.0,93,30.16,10.0,SSE,4.6,-,N/A,,Clear,150,2012-04-07 09:35:00
3:55 AM,24.8,21.2,86,30.17,10.0,SE,4.6,-,N/A,,Partly Cloudy,140,2012-04-07 09:55:00
4:15 AM,24.8,23.0,93,30.17,10.0,Calm,Calm,-,N/A,,Mostly Cloudy,0,2012-04-07 10:15:00
4:35 AM,23.0,19.4,86,30.17,10.0,SE,5.8,-,N/A,,Scattered Clouds,140,2012-04-07 10:35:00
4:55 AM,21.2,21.2,100,30.18,10.0,Calm,Calm,-,N/A,,Partly Cloudy,0,2012-04-07 10:55:00
5:15 AM,23.0,23.0,100,30.18,10.0,SE,5.8,-,N/A,,Clear,140,2012-04-07 11:15:00
5:35 AM,23.0,19.4,86,30.18,10.0,Calm,Calm,-,N/A,,Clear,0,2012-04-07 11:35:00
6:15 AM,21.2,17.6,86,30.19,10.0,East,6.9,-,N/A,,Clear,90,2012-04-07 12:15:00
6:35 AM,21.2,19.4,93,30.20,10.0,Calm,Calm,-,N/A,,Clear,0,2012-04-07 12:35:00
6:55 AM,21.2,19.4,93,30.21,10.0,Calm,Calm,-,N/A,,Clear,0,2012-04-07 12:55:00
7:35 AM,21.2,21.2,100,30.22,10.0,Calm,Calm,-,N/A,,Clear,0,2012-04-07 13:35:00
7:55 AM,24.8,19.4,80,30.23,10.0,Calm,Calm,-,N/A,,Clear,0,2012-04-07 13:55:00
8:15 AM,28.4,21.2,74,30.23,10.0,SSW,6.9,-,N/A,,Clear,200,2012-04-07 14:15:00
8:35 AM,30.2,19.4,64,30.24,10.0,NNE,4.6,-,N/A,,Clear,30,2012-04-07 14:35:00
8:55 AM,33.8,19.4,56,30.24,10.0,ESE,5.8,16.1,N/A,,Clear,120,2012-04-07 14:55:00
9:15 AM,35.6,15.8,44,30.24,10.0,WSW,11.5,19.6,N/A,,Clear,240,2012-04-07 15:15:00
9:35 AM,35.6,14.0,41,30.25,10.0,WSW,18.4,26.5,N/A,,Clear,250,2012-04-07 15:35:00
10:15 AM,37.4,12.2,36,30.25,10.0,WSW,16.1,25.3,N/A,,Clear,250,2012-04-07 16:15:00
10:35 AM,37.4,12.2,36,30.25,10.0,West,11.5,26.5,N/A,,Clear,260,2012-04-07 16:35:00
10:55 AM,37.4,14.0,38,30.26,10.0,WSW,12.7,23.0,N/A,,Clear,250,2012-04-07 16:55:00
11:15 AM,39.2,12.2,33,30.26,10.0,West,17.3,23.0,N/A,,Clear,270,2012-04-07 17:15:00
11:35 AM,39.2,10.4,31,30.25,10.0,West,9.2,19.6,N/A,,Clear,260,2012-04-07 17:35:00
11:55 AM,41.0,10.4,29,30.25,10.0,WSW,10.4,21.9,N/A,,Clear,250,2012-04-07 17:55:00
12:35 PM,42.8,8.6,25,30.24,10.0,West,6.9,-,N/A,,Clear,270,2012-04-07 18:35:00
1:15 PM,42.8,8.6,25,30.23,10.0,WNW,10.4,17.3,N/A,,Clear,290,2012-04-07 19:15:00
1:35 PM,44.6,8.6,23,30.23,10.0,West,8.1,19.6,N/A,,Clear,270,2012-04-07 19:35:00
1:55 PM,44.6,6.8,21,30.22,10.0,West,10.4,19.6,N/A,,Clear,260,2012-04-07 19:55:00
2:15 PM,44.6,6.8,21,30.22,10.0,WSW,6.9,-,N/A,,Clear,240,2012-04-07 20:15:00
2:35 PM,44.6,6.8,21,30.21,10.0,WNW,5.8,19.6,N/A,,Clear,300,2012-04-07 20:35:00
2:55 PM,46.4,5.0,18,30.20,10.0,SW,4.6,-,N/A,,Clear,230,2012-04-07 20:55:00
3:15 PM,48.2,6.8,19,30.19,10.0,WSW,6.9,-,N/A,,Scattered Clouds,250,2012-04-07 21:15:00
3:35 PM,48.2,6.8,19,30.18,10.0,West,11.5,17.3,N/A,,Overcast,270,2012-04-07 21:35:00
3:55 PM,48.2,6.8,19,30.18,10.0,West,10.4,19.6,N/A,,Mostly Cloudy,260,2012-04-07 21:55:00
4:15 PM,48.2,5.0,17,30.18,10.0,West,15.0,21.9,N/A,,Clear,280,2012-04-07 22:15:00
4:55 PM,48.2,6.8,19,30.17,10.0,West,11.5,16.1,N/A,,Clear,280,2012-04-07 22:55:00
5:15 PM,48.2,6.8,19,30.17,10.0,West,9.2,17.3,N/A,,Clear,260,2012-04-07 23:15:00
5:35 PM,48.2,6.8,19,30.18,10.0,WNW,9.2,-,N/A,,Clear,290,2012-04-07 23:35:00
5:55 PM,48.2,6.8,19,30.18,10.0,WNW,13.8,18.4,N/A,,Clear,300,2012-04-07 23:55:00
6:15 PM,48.2,6.8,19,30.18,10.0,NW,9.2,-,N/A,,Clear,310,2012-04-08 00:15:00
6:35 PM,48.2,6.8,19,30.18,10.0,NW,10.4,18.4,N/A,,Clear,320,2012-04-08 00:35:00
7:15 PM,46.4,6.8,20,30.18,10.0,NNW,8.1,-,N/A,,Clear,340,2012-04-08 01:15:00
7:55 PM,44.6,6.8,21,30.18,10.0,NE,6.9,-,N/A,,Clear,50,2012-04-08 01:55:00
8:15 PM,41.0,10.4,29,30.19,10.0,ENE,10.4,-,N/A,,Clear,60,2012-04-08 02:15:00
8:35 PM,39.2,12.2,33,30.20,10.0,NE,10.4,-,N/A,,Clear,50,2012-04-08 02:35:00
8:55 PM,37.4,14.0,38,30.20,10.0,NE,11.5,-,N/A,,Clear,50,2012-04-08 02:55:00
9:15 PM,37.4,14.0,38,30.21,10.0,NE,8.1,-,N/A,,Clear,40,2012-04-08 03:15:00
9:35 PM,37.4,15.8,41,30.22,10.0,SE,4.6,-,N/A,,Clear,130,2012-04-08 03:35:00
9:55 PM,37.4,14.0,38,30.23,10.0,Calm,Calm,-,N/A,,Clear,0,2012-04-08 03:55:00
10:15 PM,35.6,15.8,44,30.24,10.0,Calm,Calm,-,N/A,,Clear,0,2012-04-08 04:15:00
10:35 PM,35.6,12.2,38,30.24,10.0,Calm,Calm,-,N/A,,Clear,0,2012-04-08 04:35:00
10:55 PM,35.6,14.0,41,30.23,10.0,Calm,Calm,-,N/A,,Clear,0,2012-04-08 04:55:00
11:15 PM,30.2,15.8,55,30.24,10.0,Calm,Calm,-,N/A,,Clear,0,2012-04-08 05:15:00
11:35 PM,30.2,17.6,60,30.24,10.0,Calm,Calm,-,N/A,,Clear,0,2012-04-08 05:35:00
11:55 PM,30.2,17.6,60,30.24,10.0,Calm,Calm,-,N/A,,Clear,0,2012-04-08 05:55:00